GW3175 Weather Reports


Display with metric or nautical units.
time (UTC)temp
F
wind
direction
speed
MPH
gust
MPH
rain 1hr
in
rain 24hr
in
rain mn
in
humidity
%
barometer
mb
20260505170844 68 267 4.0 10.0 0.00 0.00 0.00 62 1005.1
20260505170342 68 195 7.0 14.0 0.00 0.00 0.00 60 1004.9
20260505165837 67 0 4.0 18.0 0.00 0.00 0.00 61 1005.2
20260505165333 67 250 4.0 12.0 0.00 0.00 0.00 63 1005.1
20260505164829 66 86 2.0 11.0 0.00 0.00 0.00 63 1005.0
20260505164325 66 173 2.0 13.0 0.00 0.00 0.00 62 1005.4
20260505163824 65 131 3.0 9.0 0.00 0.00 0.00 63 1005.2
20260505163322 64 257 18.0 18.0 0.00 0.00 0.00 66 1005.3
20260505162820 64 113 7.0 10.0 0.00 0.00 0.00 65 1005.9
20260505162316 62 315 5.0 7.0 0.00 0.00 0.00 68 1006.1
20260505161813 61 175 4.0 9.0 0.00 0.00 0.00 70 1006.1
20260505161311 62 138 3.0 8.0 0.00 0.00 0.00 70 1006.5
20260505160808 61 202 0.0 10.0 0.00 0.00 0.00 72 1006.7
20260505160306 61 317 2.0 5.0 0.00 0.00 0.00 70 1006.4
20260505153244 69 273 4.0 5.0 0.00 0.00 0.00 58 1005.4
20260505152741 68 168 3.0 7.0 0.00 0.00 0.00 60 1005.5
20260505152237 68 175 4.0 12.0 0.00 0.00 0.00 57 1005.8
20260505151732 68 317 4.0 11.0 0.00 0.00 0.00 56 1005.8
20260505151230 66 272 4.0 15.0 0.00 0.00 0.00 60 1005.7
20260505150726 64 173 8.0 19.0 0.00 0.00 0.00 62 1005.7
20260505150223 65 186 4.0 10.0 0.00 0.00 0.00 64 1006.0
20260505140651 64 246 3.0 10.0 0.00 0.00 0.00 62 1006.0
20260505140148 64 272 4.0 24.0 0.00 0.00 0.00 64 1006.2
20260505130112 65 298 7.0 12.0 0.00 0.00 0.00 56 1006.2
20260505124601 64 268 3.0 13.0 0.00 0.00 0.00 58 1006.4
20260505124058 64 258 6.0 7.0 0.00 0.00 0.00 56 1006.2
20260505123554 64 233 7.0 10.0 0.00 0.00 0.00 57 1006.4
20260505123050 64 251 2.0 10.0 0.00 0.00 0.00 57 1006.5
20260505122547 64 29 8.0 13.0 0.00 0.00 0.00 57 1006.4
20260505122045 63 162 7.0 16.0 0.00 0.00 0.00 57 1006.3
20260505121541 62 338 4.0 11.0 0.00 0.00 0.00 57 1006.5
20260505121038 62 238 9.0 11.0 0.00 0.00 0.00 58 1006.6
20260505120534 62 141 7.0 16.0 0.00 0.00 0.00 57 1006.6
20260505120030 62 309 4.0 12.0 0.00 0.00 0.00 58 1006.6
20260505115524 62 202 1.0 9.0 0.00 0.00 0.00 60 1006.8
20260505115022 62 186 3.0 11.0 0.00 0.00 0.00 59 1006.9
20260505114519 62 237 6.0 14.0 0.00 0.00 0.00 59 1006.8
20260505114015 62 207 4.0 13.0 0.00 0.00 0.00 57 1006.7
20260505113512 62 260 2.0 8.0 0.00 0.00 0.00 57 1006.6
20260505113009 62 281 6.0 13.0 0.00 0.00 0.00 58 1006.6
20260505112505 62 304 0.0 9.0 0.00 0.00 0.00 57 1006.7
20260505112003 62 299 1.0 10.0 0.00 0.00 0.00 57 1006.7
20260505111456 62 96 3.0 6.0 0.00 0.00 0.00 57 1006.4
20260505110953 62 159 3.0 13.0 0.00 0.00 0.00 57 1006.6
20260505110449 62 336 4.0 9.0 0.00 0.00 0.00 58 1006.4
20260505101920 57 188 4.0 9.0 0.00 0.00 0.00 66 1006.6
20260505101415 56 122 4.0 5.0 0.00 0.00 0.00 70 1006.6
20260505100911 56 245 2.0 4.0 0.00 0.00 0.00 70 1006.4
20260505100408 56 133 3.0 9.0 0.00 0.00 0.00 69 1006.4
20260505095903 55 134 3.0 4.0 0.00 0.00 0.00 72 1006.5
20260505095401 56 129 2.0 4.0 0.00 0.00 0.00 70 1006.4
20260505094857 56 118 2.0 9.0 0.00 0.00 0.00 68 1006.2
20260505094354 54 159 4.0 6.0 0.00 0.00 0.00 72 1006.4
20260505093849 54 165 2.0 5.0 0.00 0.00 0.00 73 1006.4
20260505093347 54 177 2.0 5.0 0.00 0.00 0.00 71 1006.4
20260505092844 54 119 0.0 3.0 0.00 0.00 0.00 73 1006.4
20260505092343 54 161 2.0 4.0 0.00 0.00 0.00 73 1006.4
20260505091839 55 143 2.0 6.0 0.00 0.00 0.00 70 1006.4
20260505091337 54 155 3.0 4.0 0.00 0.00 0.00 73 1006.4
20260505090835 55 149 3.0 4.0 0.00 0.00 0.00 70 1006.4
20260505090333 54 173 3.0 9.0 0.00 0.00 0.00 69 1006.2
20260505085830 55 99 3.0 5.0 0.00 0.00 0.00 68 1006.5
20260505085328 56 149 4.0 5.0 0.00 0.00 0.00 66 1006.4
20260505084826 57 166 3.0 8.0 0.00 0.00 0.00 65 1006.4
20260505084324 58 34 0.0 11.0 0.00 0.00 0.00 63 1006.2
20260505083821 57 189 4.0 9.0 0.00 0.00 0.00 64 1006.2
20260505083318 57 224 2.0 5.0 0.00 0.00 0.00 63 1006.3
20260505082815 58 200 4.0 12.0 0.00 0.00 0.00 63 1006.1
20260505082311 57 160 5.0 6.0 0.00 0.00 0.00 64 1006.3
20260505081807 57 211 4.0 9.0 0.00 0.00 0.00 63 1006.5
20260505081304 57 167 3.0 13.0 0.00 0.00 0.00 65 1006.3
20260505080801 57 191 4.0 8.0 0.00 0.00 0.00 63 1006.5
20260505080257 57 218 2.0 11.0 0.00 0.00 0.00 64 1006.4
20260505075752 57 212 3.0 13.0 0.00 0.00 0.00 63 1006.5
20260505075250 58 131 11.0 11.0 0.00 0.00 0.00 63 1006.4
20260505074747 58 348 7.0 10.0 0.00 0.00 0.00 62 1006.4
20260505074244 57 156 7.0 8.0 0.00 0.00 0.00 63 1006.4
20260505073742 56 147 4.0 7.0 0.00 0.00 0.00 65 1006.1
20260505073239 56 258 3.0 6.0 0.00 0.00 0.00 65 1006.4
20260505072736 56 198 4.0 18.0 0.00 0.00 0.00 66 1006.6
20260505072232 57 189 3.0 6.0 0.00 0.00 0.00 65 1006.5
20260505071727 57 228 3.0 11.0 0.00 0.00 0.00 66 1006.4
20260505071225 56 190 2.0 7.0 0.00 0.00 0.00 66 1006.5
20260505070722 56 163 4.0 6.0 0.00 0.00 0.00 69 1006.6
20260505070218 56 143 5.0 14.0 0.00 0.00 0.00 66 1006.6
20260505065714 56 86 2.0 4.0 0.00 0.00 0.00 67 1006.3
20260505065211 56 38 3.0 6.0 0.00 0.00 0.00 66 1006.4
20260505064708 56 301 2.0 6.0 0.00 0.00 0.00 67 1006.3
20260505064206 56 196 4.0 4.0 0.00 0.00 0.00 68 1006.2
20260505063704 56 143 1.0 4.0 0.00 0.00 0.00 68 1006.2
20260505063159 57 151 2.0 9.0 0.00 0.00 0.00 67 1006.2
20260505062655 57 203 5.0 7.0 0.00 0.00 0.00 66 1006.4
20260505062154 57 130 3.0 7.0 0.00 0.00 0.00 64 1006.2
20260505061650 58 210 0.0 11.0 0.00 0.00 0.00 64 1006.2
20260505061148 57 188 3.0 8.0 0.00 0.00 0.00 65 1006.1
20260505060645 58 214 1.0 12.0 0.00 0.00 0.00 65 1006.3
20260505060142 57 164 2.0 10.0 0.00 0.00 0.00 67 1006.4
20260505055637 57 147 1.0 10.0 0.00 0.00 0.00 64 1006.3
20260505055134 57 136 5.0 11.0 0.00 0.00 0.00 65 1006.3
20260505054632 57 144 3.0 5.0 0.00 0.00 0.00 68 1006.4
20260505054130 57 170 3.0 6.0 0.00 0.00 0.00 65 1006.1
20260505053627 56 174 3.0 5.0 0.00 0.00 0.00 66 1006.1
20260505053123 57 147 4.0 7.0 0.00 0.00 0.00 65 1006.3
20260505052620 57 171 3.0 5.0 0.00 0.00 0.00 67 1006.3
20260505052118 57 153 3.0 5.0 0.00 0.00 0.00 66 1006.1
20260505051614 57 180 5.0 9.0 0.00 0.00 0.00 65 1006.1
20260505051113 56 191 4.0 7.0 0.00 0.00 0.00 64 1006.0
20260505050610 56 94 3.0 6.0 0.00 0.00 0.00 66 1006.2
20260505050108 56 123 1.0 3.0 0.00 0.00 0.00 70 1005.9
20260505041538 57 327 2.0 8.0 0.00 0.00 0.00 66 1006.0
20260505041036 57 150 10.0 12.0 0.00 0.00 0.00 66 1005.7
20260505040532 56 98 4.0 10.0 0.00 0.00 0.00 68 1005.9
20260505040030 55 148 3.0 6.0 0.00 0.01 0.01 69 1005.8
20260505035525 56 248 3.0 9.0 0.00 0.01 0.01 68 1005.4
20260505035022 56 192 1.0 11.0 0.00 0.01 0.01 71 1005.7
20260505034519 55 144 5.0 7.0 0.00 0.01 0.01 71 1005.5
20260505034016 55 242 0.0 4.0 0.00 0.01 0.01 71 1005.9
20260505033513 55 188 1.0 6.0 0.00 0.01 0.01 71 1005.7
20260505033011 55 240 3.0 6.0 0.00 0.01 0.01 71 1005.7
20260505032508 52 70 1.0 7.0 0.00 0.01 0.01 77 1005.5
20260505032005 50 130 0.0 6.0 0.00 0.01 0.01 85 1005.7
20260505031502 48 180 2.0 11.0 0.00 0.01 0.01 88 1005.4
20260505030958 47 34 0.0 3.0 0.00 0.01 0.01 91 1005.5
20260505030455 47 177 3.0 3.0 0.00 0.01 0.01 90 1005.4
20260505025950 48 112 1.0 3.0 0.00 0.01 0.01 86 1005.4
20260505025447 48 63 0.0 2.0 0.00 0.01 0.01 88 1005.7
20260505024946 47 98 0.0 2.0 0.00 0.01 0.01 90 1005.9
20260505024443 46 126 0.0 2.0 0.00 0.01 0.01 92 1005.9
20260505023940 46 60 0.0 2.0 0.00 0.01 0.01 94 1005.9
20260505023437 46 160 0.0 2.0 0.00 0.01 0.01 95 1005.9
20260505022934 45 135 2.0 3.0 0.00 0.01 0.01 95 1005.5
20260505022432 45 140 2.0 2.0 0.00 0.01 0.01 95 1005.8
20260505021929 45 35 1.0 3.0 0.00 0.01 0.01 95 1005.7
20260505021425 45 51 2.0 3.0 0.00 0.01 0.01 94 1005.7
20260505020921 46 76 0.0 5.0 0.00 0.01 0.01 94 1005.4
20260505020416 45 124 0.0 3.0 0.00 0.01 0.01 95 1005.4
20260505015914 45 0 0.0 2.0 0.00 0.01 0.01 95 1005.5
20260505015411 45 81 0.0 3.0 0.00 0.01 0.01 94 1005.5
20260505014908 46 202 0.0 5.0 0.00 0.01 0.01 94 1005.4
20260505014405 46 60 3.0 4.0 0.00 0.01 0.01 94 1005.3
20260505013902 46 342 1.0 3.0 0.00 0.01 0.01 93 1005.4
20260505013358 46 80 3.0 5.0 0.00 0.01 0.01 93 1005.5
20260505012857 47 80 1.0 3.0 0.00 0.01 0.01 92 1005.3
20260505012355 47 44 2.0 3.0 0.00 0.01 0.01 92 1005.3
20260505011850 48 73 0.0 3.0 0.00 0.01 0.01 90 1005.1
20260505011347 48 87 0.0 2.0 0.00 0.01 0.01 90 1005.4
20260505010843 48 28 2.0 3.0 0.00 0.01 0.01 90 1005.4
20260505010339 48 44 1.0 3.0 0.00 0.01 0.01 89 1005.2
20260505005836 48 114 1.0 3.0 0.00 0.01 0.01 89 1005.1
20260505005333 49 64 2.0 2.0 0.00 0.01 0.01 89 1005.2
20260505004830 49 60 2.0 3.0 0.00 0.01 0.01 89 1005.1
20260505004326 49 116 1.0 3.0 0.00 0.01 0.01 88 1005.0
20260505003824 50 304 0.0 3.0 0.00 0.01 0.01 87 1004.9
20260505003321 50 89 0.0 3.0 0.00 0.01 0.01 85 1004.9
20260505002817 50 62 1.0 3.0 0.00 0.01 0.01 85 1004.8
20260505002314 51 45 1.0 2.0 0.00 0.01 0.01 84 1004.6
20260505001812 52 41 0.0 4.0 0.00 0.01 0.01 81 1004.8
20260505001309 52 94 2.0 4.0 0.00 0.01 0.01 81 1004.8
20260505000806 53 145 3.0 5.0 0.00 0.01 0.01 79 1004.5
20260505000304 52 133 2.0 4.0 0.00 0.01 0.01 80 1004.6
20260504235800 53 78 3.0 4.0 0.00 0.01 0.01 79 1004.6
20260504235257 53 136 3.0 3.0 0.00 0.01 0.01 79 1004.5
20260504234754 54 135 2.0 5.0 0.00 0.01 0.01 75 1004.4
20260504234252 54 132 2.0 5.0 0.00 0.01 0.01 75 1004.2
20260504233748 54 164 4.0 5.0 0.00 0.01 0.01 76 1004.3
20260504233243 55 163 3.0 5.0 0.00 0.01 0.01 75 1004.2
20260504232740 56 134 3.0 4.0 0.00 0.01 0.01 72 1004.2
20260504232237 57 157 3.0 5.0 0.00 0.01 0.01 71 1004.0
20260504231735 57 159 3.0 4.0 0.00 0.01 0.01 73 1004.2
20260504231231 58 154 3.0 4.0 0.00 0.01 0.01 70 1003.9
20260504230727 60 121 2.0 3.0 0.00 0.01 0.01 59 1004.0
20260504230226 61 142 2.0 3.0 0.00 0.01 0.01 59 1003.8
20260504225724 61 137 1.0 2.0 0.00 0.01 0.01 57 1003.7
20260504225220 61 147 1.0 3.0 0.00 0.01 0.01 56 1003.7
20260504224717 62 128 0.0 2.0 0.00 0.01 0.01 55 1003.6
20260504224214 62 82 0.0 2.0 0.00 0.01 0.01 55 1003.7
20260504223710 61 177 2.0 3.0 0.00 0.01 0.01 54 1003.6
20260504223206 62 128 1.0 4.0 0.00 0.01 0.01 54 1003.6
20260504222703 62 345 0.0 5.0 0.00 0.01 0.01 56 1003.6
20260504222200 62 120 0.0 3.0 0.00 0.01 0.01 55 1003.7
20260504221657 62 321 1.0 2.0 0.00 0.01 0.01 55 1003.6
20260504221155 62 345 2.0 5.0 0.00 0.01 0.01 55 1003.6
20260504220651 62 207 2.0 4.0 0.00 0.01 0.01 53 1003.5
20260504220149 62 149 4.0 7.0 0.00 0.01 0.01 53 1003.6
20260504215645 62 96 0.0 14.0 0.00 0.01 0.01 55 1003.8
20260504215142 62 349 6.0 7.0 0.00 0.01 0.01 54 1003.7
20260504214638 62 46 4.0 9.0 0.00 0.01 0.01 54 1003.6
20260504214134 62 277 2.0 9.0 0.00 0.01 0.01 53 1003.6
20260504213631 63 232 4.0 9.0 0.00 0.01 0.01 54 1003.6
20260504213128 62 14 4.0 9.0 0.00 0.01 0.01 53 1003.5
20260504212624 62 9 2.0 6.0 0.00 0.01 0.01 55 1003.5
20260504212121 62 5 8.0 8.0 0.00 0.01 0.01 54 1003.6
20260504211619 62 127 0.0 7.0 0.00 0.01 0.01 58 1003.6
20260504211115 63 31 4.0 7.0 0.00 0.01 0.01 56 1003.4
20260504210613 65 354 7.0 8.0 0.00 0.01 0.01 54 1003.2
20260504210109 63 176 4.0 6.0 0.00 0.01 0.01 57 1003.3
20260504205607 62 111 0.0 5.0 0.00 0.01 0.01 57 1003.5
20260504205104 62 161 2.0 5.0 0.00 0.01 0.01 58 1003.3
20260504204602 63 152 3.0 9.0 0.00 0.01 0.01 56 1003.4
20260504204101 64 191 3.0 8.0 0.00 0.01 0.01 55 1003.2
20260504203559 64 262 2.0 5.0 0.00 0.01 0.01 56 1003.2
20260504203056 64 190 4.0 11.0 0.00 0.01 0.01 56 1003.2
20260504202551 64 350 4.0 7.0 0.00 0.01 0.01 60 1003.1
20260504202048 63 150 3.0 7.0 0.00 0.01 0.01 60 1003.3
20260504201545 62 202 5.0 15.0 0.00 0.01 0.01 60 1003.4
20260504201043 62 212 2.0 9.0 0.00 0.01 0.01 60 1003.3
20260504200539 62 22 3.0 5.0 0.00 0.01 0.01 63 1003.6
20260504200036 61 152 3.0 11.0 0.00 0.01 0.01 61 1003.5
20260504195532 61 350 0.0 13.0 0.00 0.01 0.01 62 1003.4
20260504195029 62 245 2.0 8.0 0.00 0.01 0.01 59 1003.2
20260504194525 62 324 0.0 6.0 0.00 0.01 0.01 63 1003.5
20260504194021 61 221 4.0 9.0 0.00 0.01 0.01 64 1003.3
20260504193518 61 133 11.0 11.0 0.00 0.01 0.01 62 1003.5
20260504193017 60 3 2.0 11.0 0.00 0.01 0.01 63 1003.4
20260504192514 60 7 6.0 11.0 0.00 0.01 0.01 63 1003.4
20260504192013 60 251 1.0 7.0 0.00 0.01 0.01 68 1003.0
20260504191510 58 224 3.0 8.0 0.00 0.01 0.01 70 1003.3
20260504191006 58 150 0.0 10.0 0.00 0.01 0.01 71 1003.4
20260504190502 58 200 3.0 5.0 0.00 0.01 0.01 75 1003.6
20260504185958 57 199 0.0 6.0 0.00 0.01 0.01 75 1003.7
20260504185455 57 235 1.0 6.0 0.00 0.01 0.01 75 1003.9
20260504184952 57 280 2.0 9.0 0.00 0.01 0.01 76 1003.9
20260504184447 57 232 2.0 4.0 0.00 0.01 0.01 76 1004.0
20260504183943 57 197 1.0 3.0 0.00 0.01 0.01 78 1003.9
20260504183440 56 92 0.0 7.0 0.00 0.01 0.01 79 1004.0
20260504182938 56 23 2.0 5.0 0.00 0.01 0.01 81 1004.3
20260504182435 56 1 2.0 4.0 0.02 0.01 0.01 82 1004.1
20260504181933 54 113 1.0 6.0 0.02 0.01 0.01 84 1004.4
20260504181429 53 101 1.0 5.0 0.02 0.00 0.00 84 1004.5
20260504180928 54 80 0.0 7.0 0.02 0.00 0.00 82 1004.5
20260504180426 54 147 2.0 5.0 0.00 0.00 0.00 80 1004.4
20260504175924 54 313 5.0 9.0 0.00 0.00 0.00 77 1004.3
20260504175421 56 322 0.0 7.0 0.00 0.00 0.00 79 1004.1
20260504174919 57 171 2.0 6.0 0.00 0.00 0.00 65 1003.8
20260504174416 57 127 3.0 3.0 0.00 0.00 0.00 69 1003.8
20260504173913 57 175 3.0 6.0 0.00 0.00 0.00 63 1003.4
20260504173409 58 330 2.0 4.0 0.00 0.00 0.00 61 1003.3
20260504172907 59 109 5.0 13.0 0.00 0.00 0.00 59 1003.0
20260504172403 59 262 2.0 8.0 0.00 0.00 0.00 57 1003.1
20260504171859 60 348 2.0 6.0 0.00 0.00 0.00 57 1002.9
20260504171357 60 109 5.0 13.0 0.00 0.00 0.00 58 1002.9